Regional Weather Roundup
Issued by NWS Goodland, KS

Home | Current Version | Previous Version | Text Only | Print | Product List | Glossary Off
Versions: 1 2 3 4 5 6 7 8 9 10 11 12 13 14 15 16 17 18 19 20 21 22 23 24 25 26 27 28 29 30 31 32 33 34 35 36 37 38 39 40 41 42 43 44 45 46 47 48 49 50

757
ASUS43 KGLD 292308
RWRGLD

GOODLAND FORECAST AREA HOURLY WEATHER ROUNDUP
NATIONAL WEATHER SERVICE GOODLAND KS
500 PM MDT WED MAR 29 2017

...OFFICIAL OBSERVATIONS...

CITY           SKY/WX    TMP DP  RH WIND       PRES   REMARKS
GOODLAND KS    CLOUDY    44  39  82 N24       29.91S
HILL CITY KS   RAIN      39  38  96 N23G30    29.86R FOG
IMPERIAL NEB   CLOUDY    47  38  71 N15       29.95S
MCCOOK NEB     CLOUDY    45  41  86 N17       29.90S
AKRON CO       CLOUDY    50  34  54 N18G29    29.96S
BURLINGTON CO  CLOUDY    43  39  86 N16       29.94S
LIMON CO       PTSUNNY   49  36  61 N22G28    29.97S
$$

...UNOFFICIAL OBSERVATIONS...

CITY           SKY/WX    TMP DP  RH WIND       PRES   REMARKS
NORTON KS      RAIN      39  36  87 N18       29.86S
SHARON SPRINGS   N/A     43  40  91 N16         N/A
TRENTON NEB      N/A     46  32  58 NE12        N/A
KIT CARSON CO    N/A     45  39  79 MISG        N/A
YUMA CO        CLOUDY    45  37  76 N14G20    29.95F
$$




USA.gov is the U.S. government's official web portal to all federal, state and local government web resources and services.